Weather History for KBFI - May, 2013

Change the Weather History Date:

Monday, May 6, 2013

  Actual Average Record
Temperature  
Mean Temperature 70 °F -  
Max Temperature 86 °F 61 °F 86 °F (2013)
Min Temperature 55 °F 45 °F 36 °F (1965)
Cooling Degree Days 6    
Growing Degree Days 20 (Base 50)    
Moisture  
Dew Point 45 °F    
Average Humidity 44    
Maximum Humidity 69    
Minimum Humidity 21    
Precipitation  
Precipitation 0.00 in - - ()
Sea Level Pressure  
Sea Level Pressure 29.81 in    
Wind  
Wind Speed 1 mph (NW)    
Max Wind Speed 9 mph    
Max Gust Speed -    
Visibility 10 miles    
Events      
Averages and records for this station are not official NWS values.
T = Trace of Precipitation, MM = Missing Value Source: NWS Daily Summary

Daily Weather History Graph

Daily Weather History Graph

Search for Another Location

Airport or City:

Trip Planner

Search our weather history database for the weather conditions in past years. The results will help you decide how hot, cold, wet, or windy it might be!

Date:

Astronomy

May. 06, 2013 Rise Set
Actual Time 5:43 AM PDT 8:28 PM PDT
Civil Twilight 5:08 AM PDT 9:03 PM PDT
Nautical Twilight 4:24 AM PDT 9:48 PM PDT
Astronomical Twilight 3:31 AM PDT 10:41 PM PDT
Moon 4:02 AM PDT (5/6) 5:23 PM PDT (5/6)
Length of Visible Light 15h 54m
Length of Day
14h 44m
Waning Crescent, 10% of the Moon is Illuminated
May 6
Waning Crescent
May 9
New
May 17
First Quarter
May 24
Full
May 31
Last Quarter

Hourly Weather History & Observations

Time (PDT) Temp. Dew Point Humidity Pressure Visibility Wind Dir Wind Speed Gust Speed Precip Events Conditions
12:53 AM 64.9 °F 48.0 °F 54% 29.83 in 10.0 mi Calm Calm - N/A   Clear
1:53 AM 64.0 °F 46.9 °F 54% 29.82 in 10.0 mi Calm Calm - N/A   Clear
2:53 AM 60.1 °F 46.0 °F 60% 29.82 in 10.0 mi Calm Calm - N/A   Clear
3:53 AM 57.9 °F 46.9 °F 67% 29.83 in 10.0 mi Calm Calm - N/A   Clear
4:53 AM 55.9 °F 45.0 °F 67% 29.83 in 10.0 mi Calm Calm - N/A   Clear
5:53 AM 55.9 °F 46.0 °F 69% 29.84 in 10.0 mi Calm Calm - N/A   Clear
6:53 AM 57.0 °F 46.9 °F 69% 29.85 in 10.0 mi Calm Calm - N/A   Clear
7:53 AM 61.0 °F 48.9 °F 64% 29.86 in 10.0 mi Calm Calm - N/A   Clear
8:53 AM 64.9 °F 48.0 °F 54% 29.86 in 10.0 mi Calm Calm - N/A   Clear
9:53 AM 70.0 °F 46.0 °F 42% 29.86 in 10.0 mi Calm Calm - N/A   Clear
10:53 AM 73.0 °F 44.1 °F 35% 29.85 in 10.0 mi Calm Calm - N/A   Clear
11:53 AM 75.0 °F 45.0 °F 34% 29.83 in 10.0 mi Variable 3.5 mph - N/A   Clear
12:53 PM 77.0 °F 46.0 °F 33% 29.82 in 10.0 mi Variable 4.6 mph - N/A   Clear
1:53 PM 80.1 °F 44.1 °F 28% 29.81 in 10.0 mi Variable 4.6 mph - N/A   Clear
2:53 PM 82.9 °F 42.1 °F 24% 29.80 in 10.0 mi WNW 6.9 mph - N/A   Clear
3:53 PM 84.0 °F 44.1 °F 25% 29.78 in 10.0 mi NW 4.6 mph - N/A   Clear
4:53 PM 86.0 °F 43.0 °F 22% 29.76 in 10.0 mi Variable 5.8 mph - N/A   Clear
5:53 PM 84.9 °F 41.0 °F 21% 29.75 in 10.0 mi NW 9.2 mph - N/A   Clear
6:53 PM 82.0 °F 39.9 °F 22% 29.75 in 10.0 mi NNW 8.1 mph - N/A   Clear
7:53 PM 78.1 °F 42.1 °F 28% 29.76 in 10.0 mi Variable 3.5 mph - N/A   Clear
8:53 PM 75.0 °F 43.0 °F 32% 29.78 in 10.0 mi Calm Calm - N/A   Clear
9:53 PM 68.0 °F 46.9 °F 47% 29.80 in 10.0 mi Calm Calm - N/A   Clear
10:53 PM 66.9 °F 48.0 °F 51% 29.81 in 10.0 mi Calm Calm - N/A   Clear
11:53 PM 64.9 °F 46.9 °F 52% 29.83 in 10.0 mi Calm Calm - N/A   Clear